This is the latest recevied weather packets stored in our database for station/object DO7CRZ-11. If no packets are shown the sender has not sent any weather packets the latest 10 day(s).
| Time | Temp. | Humidity | Pressure | Rain* | Wind** | Luminosity | Snow |
|---|---|---|---|---|---|---|---|
| 1778052135 | 16.67° C | 79% | 1005.4 hPa | 0 mm | - | 309 W/m² | - |
| 1778051528 | 16.67° C | 81% | 1005.5 hPa | 0 mm | - | 385 W/m² | - |
| 1778050932 | 16.11° C | 83% | 1005.7 hPa | 0 mm | - | 400 W/m² | - |
| 1778050339 | 16.11° C | 85% | 1005.8 hPa | 0 mm | - | 228 W/m² | - |
| 1778049728 | 15.56° C | 86% | 1005.7 hPa | 0 mm | - | 402 W/m² | - |
| 1778049132 | 15° C | 89% | 1005.7 hPa | 0 mm | - | 395 W/m² | - |
| 1778048538 | 14.44° C | 89% | 1005.7 hPa | 0 mm | - | 165 W/m² | - |
| 1778047929 | 14.44° C | 91% | 1005.7 hPa | 0 mm | - | 174 W/m² | - |
| 1778047335 | 13.33° C | 92% | 1005.5 hPa | 0 mm | - | 232 W/m² | - |
| 1778046736 | 13.33° C | 92% | 1005.5 hPa | 0 mm | - | 58 W/m² | - |
| 1778046129 | 12.78° C | 92% | 1005.6 hPa | 0 mm | - | 88 W/m² | - |
| 1778045532 | 12.78° C | 92% | 1005.7 hPa | 0 mm | - | 63 W/m² | - |
| 1778044936 | 12.78° C | 93% | 1005.7 hPa | 0 mm | - | 42 W/m² | - |
| 1778044334 | 13.33° C | 94% | 1005.5 hPa | 0 mm | - | 60 W/m² | - |
| 1778043732 | 12.78° C | 94% | 1005.4 hPa | 0 mm | - | 46 W/m² | - |
| 1778043135 | 12.22° C | 94% | 1005.4 hPa | 0 mm | - | 64 W/m² | - |
| 1778042536 | 11.67° C | 94% | 1005.4 hPa | 0 mm | - | 43 W/m² | - |
| 1778041335 | 11.11° C | 93% | 1005.4 hPa | 0 mm | - | 23 W/m² | - |
| 1778040729 | 11.11° C | 93% | 1005.3 hPa | 0 mm | - | 13 W/m² | - |
| 1778040131 | 11.11° C | 93% | 1005.3 hPa | 0 mm | - | 11 W/m² | - |
| 1778039535 | 11.11° C | 93% | 1005.3 hPa | 0 mm | - | 7 W/m² | - |
| 1778038928 | 11.67° C | 93% | 1005.4 hPa | 0 mm | - | 4 W/m² | - |
| 1778038331 | 11.67° C | 93% | 1005.5 hPa | 0 mm | - | 2 W/m² | - |
| 1778037734 | 11.67° C | 93% | 1005.5 hPa | 0 mm | - | 1 W/m² | - |
| 1778037127 | 11.67° C | 93% | 1005.4 hPa | 0 mm | - | 0 W/m² | - |
* Rain latest hour (hover to see other rain measurements)
** Current wind speed in m/s (hover to see current wind gust speed)